Showing default

COSMOS 2384, 27055

Orbit data source: Space-Track

COSMOS 2384, 27055 is a payload satellite owned by KVR (CIS) in LEO that was launched on Fri, 28 Dec 2001 UTC via a TSIKLON-3 launch vehicle from the Plesetsk Missile And Space Complex (PKMTR). Payload-class satellites include a variety of spacecraft equipped with specific instruments for various scientific and technological missions. These include communications satellites like Starlink; space stations such as the ISS; scientific satellites like the Hubble; Earth observation satellites from companies like Planet Labs, Umbra, and HawkEye 360; GPS; miniature CubeSats for education and research; and military/defense satellites.

Loading next visibility...
Identifier
27055, 2001-058A
Orbit
LEO
Country
Flag of CISCIS
Related business
Manufacturer
NPO PM
Mission
Non-operational Defense Communications
Bus & Motor
STRELA-3, Unknown motor
Mass
225 kg wet, 225 kg dry
Launch date (UTC)
2001-12-28 (24 years ago)
Launch vehicle
TSIKLON-3
Launch site
Plesetsk Missile And Space Complex (PKMTR)
Object type
Payload
Rocket body
Debris
Shape & HBR
Cyl + 1 Arm, 3.5 m
Radar Cross Section
1.257 m², Medium (>0.1 m² and < 1m²)

Expand to show TLE details & history
Last TLE update: 2 days ago

TLE from 2 days ago
0 COSMOS 2384
1 27055U 01058A   25306.46291047  .00000021  00000-0  59027-4 0  9992
2 27055  82.5506  18.2561 0010777  51.5646 308.6409 12.59884268 96502
Epoch: 2025-11-02T11:06Z
TLE epoch observation values (Epoch: 2025-11-02T11:06:35.464Z)
Latitude
-0.00006°
Longitude
169.63004°
Altitude
1,420.902 km
Speed
7.153 km/s
True Right ascension
01h 13m 01s
True Declination
0° 00' 00"
Sunlit
Object was in full shadow at epoch
Visualization orbit readout
Latitude
Unknown
Longitude
Unknown
Altitude
Unknown
Speed
Unknown
Apparent Right ascension
Unknown
Apparent Declination
Unknown
Sunlit
N/A
Visualization observer readout
Local Sidereal Time
19:03:36
Azimuth
Unknown
Elevation
Unknown
Doppler factor
Unknown
Orbital elements
Apogee altitude
1,429.152 km
Perigee altitude
1,412.342 km
Semi-major axis
7,798.884 km
Eccentricity
0.00108
Inclination
82.5506°
RAAN
18.2561°
Arg. of periapsis
51.5646°
True anomaly
308.54436°
Mean anomaly
308.6409°
Eccentric anomaly
308.59264°
Mean motion
3.15133 °/min
Orbital period
114.24 mins
BSTAR
0.000059027
Loading maneuver chart data...
Computing Atmospheric mass density...
Loading historical data...
Loading historical data...
Loading historical data...
Loading historical data...
Loading historical data...
Loading historical data...
Loading historical data...

Documentation

Showing up to 5 results
|